Location: El Carrer d�Abaix
(41.5797°N, 2.1791°E)
Time: 11:15:38
(UTC+00:00)

STARLINK-1378 - Pass Details

Date: 09 October 2020
Orbit: 549 x 550 km, 53.0° (Epoch: 21 October)

Event Time Altitude Azimuth Distance (km) Brightness Sun altitude
Exits shadow 04:16:10 13° 335° (NNW) 1,621 5.8 -19.6°
Maximum altitude 04:18:14 18° 9° (N) 1,382 5.8 -19.2°
Drops below altitude 10° 04:21:08 10° 54° (NE) 1,824 7.2 -18.7°
Sets 04:23:57 0° 74° (ENE) 2,717 8.8 -18.2°
